Location: Croissy-Beaubourg
(48.8283°N, 2.6696°E)
Time: 20:10:00
(UTC+00:00)

USA 215 - Visible Passes

Search period start: 25 May 2022 00:00
Search period end: 04 June 2022 00:00
Orbit: 1099 x 1108 km, 123.0° (Epoch: 15 May)

Date Brightness Start Highest point End Pass type
(mag) Time Alt. Az. Time Alt. Az. Time Alt. Az.
25 May 4.1 01:03:18 10° ENE 01:09:34 50° NNW 01:15:50 10° W visible
25 May 4.4 02:45:47 10° ENE 02:51:55 45° N 02:58:04 10° WNW visible
25 May 4.6 20:56:12 10° E 20:59:54 16° ESE 21:01:46 14° SE visible
25 May 3.3 22:37:30 10° ENE 22:43:55 55° SE 22:49:02 17° SSW visible
26 May 3.6 00:20:34 10° NE 00:27:03 65° NNW 00:33:31 10° WSW visible
26 May 4.4 02:03:24 10° ENE 02:09:32 44° N 02:15:40 10° WNW visible
26 May 3.9 21:55:06 10° ENE 22:00:49 31° SE 22:03:42 22° S visible
26 May 3.2 23:37:46 10° NE 23:44:22 88° SSE 23:50:57 10° WSW visible
27 May 4.1 01:20:51 10° ENE 01:27:07 50° NNW 01:33:23 10° W visible
27 May 4.4 03:03:20 10° ENE 03:09:28 45° N 03:15:37 10° WNW visible
27 May 4.6 21:13:44 10° E 21:17:28 16° ESE 21:18:29 15° SE visible
27 May 3.3 22:55:03 10° ENE 23:01:29 56° SE 23:05:47 22° SSW visible
28 May 3.6 00:38:08 10° NE 00:44:36 65° NNW 00:51:04 10° WSW visible
28 May 4.4 02:20:58 10° ENE 02:27:05 44° N 02:33:12 10° WNW visible
28 May 4.0 22:12:39 10° ENE 22:18:22 31° SE 22:20:40 25° SSE visible
28 May 3.2 23:55:19 10° NE 00:01:55 88° SSE 00:07:58 13° WSW visible
29 May 4.1 01:38:24 10° ENE 01:44:40 50° NNW 01:50:56 10° W visible
29 May 4.6 21:31:16 10° E 21:35:02 16° ESE 21:35:36 16° SE visible
29 May 3.3 23:12:36 10° ENE 23:19:02 56° SE 23:22:54 25° SSW visible
30 May 3.6 00:55:41 10° NE 01:02:09 64° NNW 01:08:37 10° WSW visible
30 May 4.4 02:38:31 10° ENE 02:44:38 44° N 02:50:46 10° WNW visible
30 May 4.0 22:30:12 10° ENE 22:35:56 31° SE 22:37:54 27° SSE visible
31 May 3.2 00:12:53 10° NE 00:19:28 89° SSE 00:25:13 14° WSW visible
31 May 4.1 01:55:58 10° ENE 02:02:13 50° NNW 02:08:29 10° W visible
31 May 4.7 21:48:47 10° E 21:52:35 16° ESE 21:52:56 16° SE visible
31 May 3.3 23:30:09 10° ENE 23:36:36 56° SE 23:40:15 26° SSW visible
01 Jun 3.6 01:13:14 10° NE 01:19:42 64° NNW 01:26:10 10° WSW visible
01 Jun 4.4 02:56:04 10° ENE 03:02:11 44° N 03:08:18 10° WNW visible
01 Jun 4.0 22:47:45 10° ENE 22:53:29 32° SE 22:55:19 27° SSE visible
02 Jun 3.2 00:30:26 10° NE 00:37:02 89° SE 00:42:38 15° WSW visible
02 Jun 4.1 02:13:31 10° ENE 02:19:46 50° NNW 02:26:02 10° W visible
02 Jun 4.7 22:06:20 10° E 22:10:09 16° ESE 22:10:26 16° SE visible
02 Jun 3.4 23:47:43 10° ENE 23:54:09 56° SE 23:57:45 27° SSW visible
03 Jun 3.7 01:30:48 10° NE 01:37:16 64° NNW 01:43:43 10° WSW visible
03 Jun 4.0 23:05:18 10° ENE 23:11:03 32° SE 23:12:53 28° SSE visible
